Toulon-Hyères Airport

Airport
ICAO code: 
LFTH
IATA Code: 
TLN
Summary
ICAO Region: 
EUR
Territory: 
Location: 
, Provence-Alpes-Cote d'Azur
Serving: 
Hyeres
Elevation: 
7 ft
Coordinates: 
Aerial View: 
43° 5' 50.28" N, 6° 8' 45.708" E
Metar
Observation
LFTH 210430Z AUTO 32007KT CAVOK 05/M01 Q1018 NOSIG
Station
Hyeres
Date/Time
2022-01-21 04:30:00
Wind direction
320°
Wind speed
07 kts
Lowest cloud amount
clouds and visibility OK
Temperature
5°C
Dew point
-1°C
Humidity
65%
QNH
1018 hPa
Weather condition
n/a

Runways

Designator Length Width Surface Rops
14/32 1900 50 ASP Yes/Yes
5/23 2120 45 ASP Yes/Yes
Airport map: 
Aerial View: 

SKYbrary Partners:

Safety knowledge contributed by: